Theta_e
304 304 304 304 304 304 303 305 306 306 305 305 305 304 305 310 311 311 311 313 313 314 313 314 314 315 316 316 316 315 314 314 314 313 310 306 304 303 302 300 298 297 296 296
305 304 302 304 304 303 302 303 303 304 304 303 305 306 308 310 310 310 311 311 311 311 312 312 313 312 313 314 315 314 314 314 314 311 305 303 302 301 300 298 297 297 297 296
306 303 304 304 304 303 302 301 303 305 304 303 307 308 308 309 310 310 310 310 310 311 312 310 312 311 312 312 312 312 312 311 308 304 303 303 301 299 298 298 297 297 295 294
304 304 305 304 302 301 302 302 301 302 301 303 307 307 309 309 310 310 309 309 309 310 310 311 310 311 311 310 309 309 307 305 303 302 301 300 299 299 297 296 295 294 295 294
303 304 305 305 303 302 304 304 302 302 303 303 304 306 305 306 308 309 308 307 308 309 306 307 307 306 307 306 305 304 304 303 301 301 300 299 298 297 297 295 295 295 291 289
302 306 307 305 303 302 303 304 302 303 302 302 303 304 302 306 305 305 304 304 304 304 304 305 304 304 304 304 303 303 303 302 301 300 299 298 297 296 295 295 293 290 290 289
304 306 305 303 302 303 306 306 303 304 304 303 303 303 304 305 304 304 303 303 302 302 302 302 303 304 303 303 303 303 302 301 299 297 297 296 295 295 294 291 289 289 289 289
303 304 305 303 302 305 304 304 304 304 305 306 306 305 304 305 304 304 302 302 302 302 302 302 301 302 302 302 302 301 300 298 296 296 295 294 295 293 290 289 289 289 289 288
303 305 303 304 303 305 305 305 305 305 306 306 305 305 305 305 304 303 302 302 302 302 302 301 301 301 301 301 299 299 298 297 296 294 294 294 291 290 289 289 289 288 288 288
303 304 301 304 305 304 305 304 305 305 305 306 306 305 305 305 304 303 302 302 301 301 301 301 300 300 300 300 298 298 296 295 294 294 292 291 290 289 289 289 288 288 288 288
300 301 303 305 305 305 306 305 305 306 305 306 306 306 307 306 305 303 302 301 301 301 301 300 300 299 299 299 298 296 295 294 294 292 291 290 289 289 289 288 288 288 288 288
301 303 303 304 305 305 304 305 305 306 306 306 305 305 305 305 305 305 303 303 301 300 300 299 299 298 298 297 296 294 294 294 292 291 290 289 289 289 288 288 288 288 288 287
304 305 303 304 304 305 304 304 304 305 305 305 305 305 305 305 305 304 303 303 302 301 300 299 298 297 296 296 294 293 295 293 292 290 289 289 288 288 287 287 287 287 287 287
303 303 303 304 304 303 303 303 304 304 304 304 304 304 305 305 304 304 303 302 302 301 299 299 298 297 296 294 293 294 293 292 291 289 289 288 288 287 287 287 287 287 287 286
301 301 303 304 304 303 303 304 304 304 303 303 304 304 304 304 304 304 303 301 300 300 299 298 297 295 294 293 293 294 292 291 290 289 288 288 288 287 287 287 287 287 286 286
302 304 303 303 304 303 303 303 303 303 303 303 303 303 304 304 304 303 302 301 300 300 298 297 296 294 293 293 293 293 291 290 289 288 288 288 287 287 287 287 286 286 286 285
303 300 301 302 303 303 303 302 303 303 302 302 302 303 303 303 303 302 301 300 299 299 298 297 295 294 292 292 293 292 291 290 289 288 288 287 287 287 287 286 286 286 286 285
303 303 304 304 303 302 302 301 301 302 301 301 301 302 302 302 302 301 300 299 298 296 295 294 294 293 292 293 293 292 291 289 288 288 287 287 287 286 286 286 286 286 286 285
302 302 302 302 302 301 301 301 301 301 300 300 300 301 301 301 300 300 299 298 297 297 295 294 293 292 292 293 292 291 290 288 288 287 287 286 286 286 286 286 286 286 285 285
300 301 301 301 301 300 300 300 300 300 300 299 300 300 299 299 298 298 297 296 295 295 295 294 293 292 293 292 291 289 288 287 287 287 286 286 286 286 285 285 285 285 285 285
298 298 299 299 299 299 298 298 298 299 298 298 298 298 298 297 296 296 296 295 294 293 292 292 292 292 291 290 288 288 288 287 287 286 286 286 286 286 285 285 284 284 284 284
295 296 296 298 298 296 296 297 297 297 297 297 296 296 296 295 295 294 293 293 293 292 292 292 291 289 288 288 288 288 288 287 286 286 286 286 285 284 283 283 283 282 282 281
293 294 294 294 295 294 293 294 294 294 294 294 294 294 294 293 292 292 292 292 291 290 289 288 288 288 289 289 288 288 287 286 286 286 286 285 284 284 283 283 283 282 282 281
290 290 290 291 292 292 292 292 292 292 292 292 292 291 292 292 292 291 289 289 288 288 288 289 289 289 289 289 288 287 286 286 285 285 285 284 283 283 283 283 283 283 282 281
289 288 289 290 291 290 289 289 290 290 290 289 289 288 288 288 288 288 288 288 288 288 289 289 289 289 288 288 287 286 285 285 285 284 283 283 283 283 282 282 282 282 282 281
290 290 290 290 289 288 288 288 289 287 287 287 287 287 287 287 287 287 287 288 288 289 289 289 289 288 287 286 285 285 285 285 285 283 283 283 283 282 282 281 281 281 280 280
287 287 287 287 287 287 287 288 288 288 288 288 288 288 288 288 288 288 288 288 288 288 287 286 286 285 285 285 285 285 284 284 284 283 283 283 282 282 281 281 281 280 280 280
Wind_Speed
11 18 16 17 18 14 11 14 7 10 7 15 8 8 8 5 1 2 2 2 2 4 5 8 14 18 23 26 27 33 33 29 26 22 20 20 20 18 17 16 14 11 10 7
12 10 3 12 16 13 9 7 11 15 15 10 10 1 3 3 3 3 4 4 5 9 11 12 10 12 19 24 30 32 32 28 24 21 22 20 19 18 16 15 12 9 6 4
7 6 13 6 5 5 4 5 5 5 7 5 3 1 4 6 6 7 7 7 9 11 14 13 14 14 19 23 22 22 23 24 24 25 23 20 19 17 14 11 10 7 4 3
5 7 4 5 2 4 5 8 8 5 6 4 2 2 3 5 8 9 10 10 11 14 12 14 17 15 16 19 22 22 23 25 24 24 23 22 20 16 14 11 8 5 3 5
2 2 9 5 1 3 3 6 6 4 3 2 2 2 2 5 8 8 9 8 9 8 12 15 15 15 17 20 21 23 24 25 24 22 21 19 17 15 11 8 5 4 5 5
2 2 5 3 1 2 2 4 4 5 5 6 6 1 4 8 7 9 8 8 9 10 11 12 14 15 17 20 21 21 21 21 19 18 18 18 15 13 10 7 5 5 5 5
6 4 9 8 3 4 1 4 3 8 10 14 4 4 1 10 10 10 10 9 10 11 12 13 15 16 17 19 19 18 19 19 19 18 17 14 12 10 7 6 5 4 5 7
4 4 8 6 4 4 2 3 4 7 12 18 13 2 8 14 15 13 12 12 11 12 13 14 14 16 18 19 19 20 21 22 21 19 16 13 10 8 7 6 4 5 6 7
10 7 5 7 8 9 8 7 4 9 12 14 14 10 10 15 14 12 11 11 11 12 14 15 16 17 21 22 23 23 23 22 20 18 14 11 9 7 6 5 5 5 6 6
2 4 6 17 16 13 11 10 5 9 11 15 13 11 12 17 17 16 14 13 13 13 14 16 17 16 16 21 22 22 22 20 18 15 12 10 8 6 6 5 5 5 5 7
4 8 12 14 17 17 16 12 10 9 12 17 17 16 13 18 21 18 16 14 11 11 13 14 16 17 17 19 21 21 20 18 15 12 10 8 7 6 5 4 4 5 8 10
5 5 5 21 18 18 18 15 13 12 12 12 15 16 16 21 23 22 22 20 18 15 14 15 16 17 18 19 19 18 18 15 12 10 9 8 7 6 5 4 6 9 11 12
22 26 15 21 21 16 18 16 13 13 13 13 15 17 16 20 21 21 21 20 18 17 16 16 17 17 18 19 18 16 13 12 11 10 9 7 6 5 5 5 7 10 12 14
19 13 14 17 13 12 14 13 12 11 11 11 11 13 15 19 20 22 23 22 19 19 18 17 17 18 19 19 18 15 13 11 10 8 8 7 6 5 6 7 8 10 12 13
39 32 32 25 16 16 15 15 13 11 12 11 10 10 13 16 18 19 20 20 19 18 18 18 18 19 20 19 17 16 14 11 9 9 8 6 7 7 8 8 10 11 12 11
38 42 37 26 20 19 18 17 15 12 11 11 10 10 11 11 13 16 18 20 21 21 19 19 18 18 19 18 17 15 13 11 9 8 8 8 8 8 9 10 10 11 11 12
34 28 29 29 28 24 21 18 16 13 13 12 11 10 12 13 14 15 17 17 16 15 15 16 17 18 17 17 15 13 12 10 10 10 9 9 10 10 11 10 11 12 13 13
43 44 40 38 29 25 21 17 13 11 10 11 11 11 12 14 15 16 16 16 16 15 15 15 16 16 16 16 15 13 12 11 10 9 10 11 11 12 12 12 12 13 14 14
34 32 26 25 22 20 17 16 14 12 11 11 12 13 14 14 14 15 15 15 15 15 17 17 16 16 15 15 14 13 12 10 10 11 11 13 13 13 13 14 15 16 16 15
30 24 23 22 19 16 17 16 15 15 14 14 15 15 16 14 13 14 13 13 12 12 13 15 15 15 15 14 13 11 10 11 11 12 13 14 14 15 16 17 17 18 16 15
26 25 23 22 19 17 16 16 16 17 16 14 14 16 15 15 14 13 13 14 14 13 13 13 13 13 12 11 11 10 11 12 13 13 13 14 16 17 18 18 18 17 16 16
22 21 22 22 23 22 19 19 17 18 18 16 16 16 17 17 16 16 13 10 12 13 13 12 11 11 10 10 10 10 12 13 13 14 14 16 18 18 15 15 15 16 17 18
25 25 24 26 27 26 24 21 20 19 20 18 18 17 16 17 15 13 13 12 11 11 11 11 10 9 9 10 10 12 13 14 14 15 16 16 17 17 17 17 18 18 19 20
27 27 27 28 28 28 28 24 22 20 20 19 18 15 13 14 14 12 10 11 11 10 9 8 8 9 10 12 13 15 15 15 16 16 17 16 18 18 19 19 20 21 21 22
28 26 26 26 28 28 25 22 21 19 16 16 15 13 10 10 6 9 9 9 8 7 7 8 10 12 14 14 16 17 17 18 18 18 18 19 19 20 20 21 22 23 24 24
24 23 22 21 22 20 18 15 16 15 11 11 11 9 7 6 6 7 8 7 8 9 10 12 14 15 16 16 17 18 18 19 19 19 21 22 23 23 24 25 25 25 23 23
23 21 21 21 19 17 15 13 11 11 9 7 6 5 3 4 5 5 7 9 10 12 13 14 16 17 17 18 19 19 20 20 21 21 21 22 22 23 24 23 22 21 22 22
Wind_Direction
250 267 274 270 274 270 213 230 227 275 254 279 268 272 275 218 187 93 63 76 99 106 120 154 173 178 187 192 183 175 169 167 169 173 165 173 168 165 161 165 170 168 167 169
293 266 257 281 274 257 242 237 248 265 280 283 286 336 160 160 175 155 161 131 113 102 96 97 116 154 168 170 167 169 166 166 167 165 167 162 160 161 161 163 168 167 170 181
278 331 311 295 240 197 226 197 196 221 241 325 332 244 205 180 183 182 163 147 121 102 92 91 88 96 124 127 135 151 147 155 159 162 164 161 165 163 159 166 169 163 175 215
282 339 325 243 224 220 218 255 225 270 270 249 198 280 245 207 186 180 164 147 132 122 146 147 141 146 140 151 152 156 157 157 162 164 161 160 162 162 160 163 163 161 215 264
252 256 287 294 142 197 164 290 198 209 158 126 142 129 310 214 204 186 174 161 159 155 146 151 156 153 155 155 158 160 159 160 162 162 160 161 161 159 156 163 175 212 247 269
152 228 266 253 164 166 141 293 194 172 167 156 142 50 267 191 184 176 163 165 163 166 168 169 163 170 168 164 162 158 158 161 162 162 167 163 162 159 159 175 209 236 258 277
224 271 280 252 188 146 34 257 205 194 183 169 182 201 252 182 181 173 170 171 170 170 168 167 170 171 174 167 163 163 165 164 161 162 162 163 160 161 174 197 216 240 273 289
161 207 275 175 106 187 268 198 213 217 203 199 203 301 184 179 178 176 173 167 163 160 158 159 164 168 170 167 168 168 165 162 162 163 163 161 167 177 188 199 229 258 277 291
188 211 253 217 251 281 278 267 211 227 209 213 218 233 200 189 187 182 177 167 159 160 156 155 157 171 170 168 167 165 165 165 166 164 166 172 178 183 195 216 235 258 274 292
140 268 260 273 258 262 252 263 253 230 225 208 217 233 219 200 194 189 184 178 169 165 162 157 158 168 173 165 164 165 166 167 168 172 172 177 184 193 207 228 254 272 302 315
257 282 301 280 266 261 247 245 234 232 220 215 211 205 205 208 202 197 191 183 181 179 177 170 165 168 174 171 169 171 172 170 171 176 179 186 191 204 229 252 280 310 316 315
227 291 287 290 311 291 246 239 233 224 228 231 229 229 223 211 205 202 198 192 190 187 188 185 179 176 177 178 177 178 177 179 181 184 190 198 212 229 247 280 309 316 314 320
265 278 285 292 295 280 248 236 235 236 232 230 231 233 232 219 217 211 203 200 199 194 190 190 187 185 184 184 183 186 188 187 192 199 206 216 227 242 267 287 299 307 316 322
264 271 277 287 271 255 247 240 227 232 235 233 228 232 229 223 218 215 212 207 199 195 193 192 192 190 187 187 186 187 191 199 205 210 215 223 232 249 267 280 296 310 312 314
267 265 268 274 270 256 236 238 238 234 238 234 225 226 225 220 217 213 208 206 202 198 196 194 192 190 190 191 192 194 201 206 211 216 222 235 249 259 271 288 303 310 314 315
257 261 258 244 245 240 232 229 230 232 235 232 224 211 211 211 216 207 201 201 200 198 196 196 193 193 193 193 195 198 203 210 220 228 240 250 257 267 277 287 301 313 316 315
238 228 229 230 227 224 222 230 230 230 235 230 221 202 197 192 190 195 195 198 201 204 201 196 193 192 194 196 199 203 212 222 232 239 248 257 264 269 274 285 299 309 316 310
240 243 243 240 224 215 211 215 216 207 208 208 196 182 182 185 187 186 189 190 188 186 189 190 192 194 195 197 202 209 220 231 238 248 257 262 266 269 275 283 293 305 311 308
246 235 225 210 203 202 198 196 191 185 183 185 177 167 171 174 175 178 179 182 185 188 185 185 189 192 196 201 208 217 228 237 245 253 258 261 264 270 275 281 287 296 302 303
202 195 189 181 180 188 187 179 175 169 166 169 161 157 156 156 159 163 165 170 172 177 183 184 187 190 197 206 215 224 232 240 249 254 257 261 267 272 274 276 281 288 291 295
174 172 169 167 160 163 172 162 160 155 155 156 157 153 151 150 150 154 159 166 165 169 174 181 188 199 207 217 224 231 241 249 255 259 262 266 272 273 274 273 277 282 286 292
153 154 152 153 150 150 146 143 146 145 143 145 148 143 147 145 146 146 150 163 165 169 175 184 196 205 213 224 234 246 254 259 262 264 267 271 276 284 282 278 280 285 290 292
137 138 138 139 137 130 126 126 126 128 130 133 131 134 138 135 139 149 155 163 172 177 183 189 198 208 223 242 255 261 263 264 264 266 268 267 276 279 282 280 282 286 289 291
116 118 121 119 119 119 114 112 117 121 124 125 126 125 131 140 146 155 162 173 180 185 189 200 218 236 251 262 267 266 263 264 265 266 266 267 271 275 278 280 280 282 284 290
106 112 115 113 108 106 110 115 116 116 122 126 126 131 137 145 159 164 175 187 196 208 221 236 250 258 264 267 268 267 268 267 264 262 265 270 273 274 275 275 277 278 278 282
114 110 106 104 106 111 113 120 119 119 125 125 124 128 142 155 172 189 205 220 236 247 257 265 269 271 274 274 274 276 276 274 273 271 273 273 274 274 275 273 274 275 275 277
103 106 107 105 104 106 109 109 114 114 115 115 124 134 157 195 216 235 253 262 268 274 276 277 276 276 278 279 277 277 277 278 280 281 281 283 283 282 284 283 281 276 276 279